{"data":{"norad_id":47381,"epoch":"2026-09-19T12:05:45.663072Z","epoch_age_seconds":111750,"freshness":"FRESH","line1":"1 47381U 21005AJ  26262.50400073  .00008747  00000+0  27366-3 0  9990","line2":"2 47381  53.1608 215.3190 0001200  85.2897 274.8242 15.33933732313084","mean_motion":15.33933732,"eccentricity":0.00012,"inclination_deg":53.1608,"raan_deg":215.319,"arg_perigee_deg":85.2897,"mean_anomaly_deg":274.8242,"bstar":0.00027366,"rev_number":31308,"period_min":93.876284871999,"perigee_km":463.26837082537,"apogee_km":464.91050517049,"semimajor_km":6842.2264379979,"source":"CELESTRAK","updated_at":"2026-09-20T09:00:38.592766Z"}}